TimePDT,TemperatureF,Dew PointF,Humidity,Sea Level PressureIn,VisibilityMPH,Wind Direction,Wind SpeedMPH,Gust SpeedMPH,PrecipitationIn,Events,Conditions,WindDirDegrees,DateUTC
12:53 AM,68.0,26.1,21,29.85,10.0,NE,3.5,-,N/A,,Clear,50,2013-09-27 07:53:00
1:53 AM,64.0,36.0,35,29.86,10.0,Calm,Calm,-,N/A,,Clear,0,2013-09-27 08:53:00
2:53 AM,60.1,30.0,32,29.86,10.0,NNW,3.5,-,N/A,,Clear,340,2013-09-27 09:53:00
3:53 AM,59.0,25.0,27,29.86,10.0,NW,4.6,-,N/A,,Clear,320,2013-09-27 10:53:00
4:53 AM,60.1,32.0,35,29.86,10.0,WNW,4.6,-,N/A,,Clear,300,2013-09-27 11:53:00
5:53 AM,59.0,33.1,38,29.88,10.0,Calm,Calm,-,N/A,,Clear,0,2013-09-27 12:53:00
6:53 AM,59.0,32.0,36,29.91,10.0,Calm,Calm,-,N/A,,Clear,0,2013-09-27 13:53:00
7:53 AM,63.0,33.1,33,29.93,10.0,Calm,Calm,-,N/A,,Clear,0,2013-09-27 14:53:00
8:53 AM,68.0,32.0,26,29.94,10.0,Calm,Calm,-,N/A,,Clear,0,2013-09-27 15:53:00
9:53 AM,75.9,30.0,19,29.94,10.0,ESE,4.6,-,N/A,,Clear,110,2013-09-27 16:53:00
10:53 AM,79.0,24.1,13,29.93,10.0,Variable,3.5,-,N/A,,Clear,0,2013-09-27 17:53:00
11:53 AM,82.0,23.0,11,29.93,10.0,Calm,Calm,-,N/A,,Clear,0,2013-09-27 18:53:00
12:53 PM,82.9,25.0,12,29.91,10.0,Calm,Calm,-,N/A,,Clear,0,2013-09-27 19:53:00
1:53 PM,82.9,30.9,15,29.89,10.0,South,10.4,-,N/A,,Clear,190,2013-09-27 20:53:00
2:53 PM,82.9,30.9,15,29.88,10.0,SSE,11.5,-,N/A,,Clear,160,2013-09-27 21:53:00
3:53 PM,81.0,30.0,16,29.89,10.0,SE,12.7,-,N/A,,Clear,140,2013-09-27 22:53:00
4:53 PM,80.1,28.9,15,29.89,10.0,South,12.7,-,N/A,,Clear,170,2013-09-27 23:53:00
5:53 PM,79.0,30.0,17,29.90,10.0,ESE,8.1,-,N/A,,Clear,120,2013-09-28 00:53:00
6:53 PM,75.0,36.0,24,29.91,10.0,ESE,5.8,-,N/A,,Clear,120,2013-09-28 01:53:00
7:53 PM,73.0,34.0,24,29.93,10.0,Calm,Calm,-,N/A,,Clear,0,2013-09-28 02:53:00
8:53 PM,71.1,36.0,28,29.95,10.0,NW,3.5,-,N/A,,Clear,310,2013-09-28 03:53:00
9:53 PM,69.1,30.9,24,29.95,10.0,NNW,4.6,-,N/A,,Clear,340,2013-09-28 04:53:00
10:53 PM,69.1,28.9,22,29.96,10.0,NE,3.5,-,N/A,,Clear,50,2013-09-28 05:53:00
11:53 PM,66.0,30.9,27,29.96,10.0,NNE,4.6,-,N/A,,Clear,20,2013-09-28 06:53:00